,,,PA_Meas_PMT16A,,PR_Meas_QMR101_102,,RH_Meas_QMH101,,SR_Meas_QMS101,,TA_Meas_QMH101,,GenWind,,GenWind,
date,time,status,PA,status,PR,status,RH,status,SR,status,TA,status,DirAvg,status,SpdAvg,
2014-12-31, 00:00:04,VALID,1008.76,VALID,0,INVALID,137.302,VALID,0,VALID,24.6099,VALID,107,VALID,0,
2014-12-31, 00:01:04,VALID,1008.76,VALID,0,INVALID,137.34,VALID,0,VALID,24.5691,VALID,107,VALID,0,
2014-12-31, 00:02:04,VALID,1008.69,VALID,0,INVALID,137.424,VALID,0,VALID,24.571,VALID,107,VALID,0,
2014-12-31, 00:03:04,VALID,1008.69,VALID,0,INVALID,137.462,VALID,0.112112,VALID,24.5301,VALID,107,VALID,0,
2014-12-31, 00:04:04,VALID,1008.69,VALID,0,INVALID,137.469,VALID,0.112112,VALID,24.532,VALID,107,VALID,0,
2014-12-31, 00:05:04,VALID,1008.66,VALID,0,INVALID,137.439,VALID,0,VALID,24.532,VALID,107,VALID,0,
2014-12-31, 00:06:04,VALID,1008.66,VALID,0,INVALID,137.386,VALID,0,VALID,24.5515,VALID,107,VALID,0,
2014-12-31, 00:07:04,VALID,1008.67,VALID,0,INVALID,137.363,VALID,0,VALID,24.571,VALID,107,VALID,0,
2014-12-31, 00:08:04,VALID,1008.64,VALID,0,INVALID,137.325,VALID,0,VALID,24.5515,VALID,107,VALID,0,
2014-12-31, 00:09:04,VALID,1008.63,VALID,0,INVALID,137.309,VALID,0,VALID,24.5515,VALID,107,VALID,0,
2014-12-31, 00:10:04,VALID,1008.6,VALID,0,INVALID,137.256,VALID,0.112112,VALID,24.5515,VALID,107,VALID,0,
2014-12-31, 00:11:04,VALID,1008.61,VALID,0,INVALID,137.225,VALID,0,VALID,24.532,VALID,107,VALID,0,
2014-12-31, 00:12:04,VALID,1008.6,VALID,0,INVALID,137.18,VALID,0,VALID,24.5515,VALID,107,VALID,0,
2014-12-31, 00:13:04,VALID,1008.57,VALID,0,INVALID,137.164,VALID,0,VALID,24.532,VALID,107,VALID,0,
2014-12-31, 00:14:04,VALID,1008.6,VALID,0,INVALID,137.142,VALID,0,VALID,24.5106,VALID,107,VALID,0,
2014-12-31, 00:15:04,VALID,1008.51,VALID,0,INVALID,137.065,VALID,0,VALID,24.532,VALID,107,VALID,0,
2014-12-31, 00:16:04,VALID,1008.46,VALID,0,INVALID,137.05,VALID,0,VALID,24.5125,VALID,107,VALID,0,
2014-12-31, 00:17:04,VALID,1008.47,VALID,0,INVALID,136.959,VALID,0,VALID,24.5338,VALID,107,VALID,0,
2014-12-31, 00:18:04,VALID,1008.46,VALID,0,INVALID,136.905,VALID,0,VALID,24.5125,VALID,107,VALID,0,
2014-12-31, 00:19:04,VALID,1008.46,VALID,0,INVALID,136.89,VALID,0,VALID,24.5338,VALID,107,VALID,0,
2014-12-31, 00:20:04,VALID,1008.44,VALID,0,INVALID,136.806,VALID,0,VALID,24.5533,VALID,107,VALID,0,
2014-12-31, 00:21:04,VALID,1008.41,VALID,0,INVALID,136.783,VALID,0,VALID,24.5338,VALID,107,VALID,0,
2014-12-31, 00:22:04,VALID,1008.38,VALID,0,INVALID,136.776,VALID,0,VALID,24.5125,VALID,107,VALID,0,
2014-12-31, 00:23:04,VALID,1008.37,VALID,0,INVALID,136.791,VALID,0,VALID,24.5338,VALID,107,VALID,0,
2014-12-31, 00:24:04,VALID,1008.34,VALID,0,INVALID,136.829,VALID,0,VALID,24.5338,VALID,107,VALID,0,
2014-12-31, 00:25:04,VALID,1008.32,VALID,0,INVALID,136.837,VALID,0,VALID,24.493,VALID,107,VALID,0,
2014-12-31, 00:26:04,VALID,1008.29,VALID,0,INVALID,136.867,VALID,0,VALID,24.4949,VALID,107,VALID,0,
2014-12-31, 00:27:04,VALID,1008.27,VALID,0,INVALID,136.913,VALID,0,VALID,24.4949,VALID,107,VALID,0,
2014-12-31, 00:28:04,VALID,1008.26,VALID,0,INVALID,136.928,VALID,0,VALID,24.4754,VALID,107,VALID,0,
2014-12-31, 00:29:04,VALID,1008.22,VALID,0,INVALID,136.905,VALID,0,VALID,24.4754,VALID,107,VALID,0,
2014-12-31, 00:30:04,VALID,1008.18,VALID,0,INVALID,136.913,VALID,0,VALID,24.4559,VALID,107,VALID,0,
2014-12-31, 00:31:04,VALID,1008.14,VALID,0,INVALID,136.92,VALID,0,VALID,24.4522,VALID,107,VALID,0,
2014-12-31, 00:32:04,VALID,1008.11,VALID,0,INVALID,136.89,VALID,0,VALID,24.4735,VALID,107,VALID,0,
2014-12-31, 00:33:04,VALID,1008.09,VALID,0,INVALID,136.859,VALID,0,VALID,24.4735,VALID,107,VALID,0,
2014-12-31, 00:34:04,VALID,1008.08,VALID,0,INVALID,136.821,VALID,0,VALID,24.4735,VALID,107,VALID,0,
2014-12-31, 00:35:04,VALID,1008.05,VALID,0,INVALID,136.76,VALID,0.112112,VALID,24.4522,VALID,107,VALID,0,
2014-12-31, 00:36:04,VALID,1008.03,VALID,0,INVALID,136.669,VALID,0,VALID,24.4735,VALID,107,VALID,0,
2014-12-31, 00:37:04,VALID,1007.98,VALID,0,INVALID,136.585,VALID,0,VALID,24.5125,VALID,107,VALID,0,
2014-12-31, 00:38:04,VALID,1007.94,VALID,0,INVALID,136.478,VALID,0.112112,VALID,24.4911,VALID,107,VALID,0,
2014-12-31, 00:39:04,VALID,1007.96,VALID,0,INVALID,136.409,VALID,0,VALID,24.5125,VALID,107,VALID,0,
2014-12-31, 00:40:04,VALID,1007.94,VALID,0,INVALID,136.348,VALID,0,VALID,24.4911,VALID,107,VALID,0,
2014-12-31, 00:41:04,VALID,1007.93,VALID,0,INVALID,136.341,VALID,0,VALID,24.5125,VALID,107,VALID,0,
2014-12-31, 00:42:04,VALID,1007.93,VALID,0,INVALID,136.257,VALID,0,VALID,24.5125,VALID,107,VALID,0,
2014-12-31, 00:43:04,VALID,1007.89,VALID,0,INVALID,136.211,VALID,0,VALID,24.4911,VALID,107,VALID,0,
2014-12-31, 00:44:04,VALID,1007.89,VALID,0,INVALID,136.143,VALID,0,VALID,24.5125,VALID,107,VALID,0,
2014-12-31, 00:45:04,VALID,1007.89,VALID,0,INVALID,136.15,VALID,0,VALID,24.4911,VALID,107,VALID,0,
2014-12-31, 00:46:04,VALID,1007.9,VALID,0,INVALID,136.158,VALID,0,VALID,24.4735,VALID,107,VALID,0,
2014-12-31, 00:47:04,VALID,1007.93,VALID,0,INVALID,136.196,VALID,0,VALID,24.454,VALID,107,VALID,0,
2014-12-31, 00:48:04,VALID,1007.92,VALID,0,INVALID,136.196,VALID,0,VALID,24.4345,VALID,107,VALID,0,
2014-12-31, 00:49:04,VALID,1007.92,VALID,0,INVALID,136.181,VALID,0,VALID,24.4559,VALID,107,VALID,0,
2014-12-31, 00:50:04,VALID,1007.91,VALID,0,INVALID,136.211,VALID,0,VALID,24.4364,VALID,107,VALID,0,
2014-12-31, 00:51:04,VALID,1007.87,VALID,0,INVALID,136.173,VALID,0,VALID,24.4364,VALID,107,VALID,0,
2014-12-31, 00:52:04,VALID,1007.86,VALID,0,INVALID,136.173,VALID,0,VALID,24.415,VALID,107,VALID,0,
2014-12-31, 00:53:04,VALID,1007.86,VALID,0,INVALID,136.219,VALID,0,VALID,24.415,VALID,107,VALID,0,
2014-12-31, 00:54:04,VALID,1007.86,VALID,0,INVALID,136.188,VALID,0,VALID,24.3956,VALID,107,VALID,0,
2014-12-31, 00:55:04,VALID,1007.85,VALID,0,INVALID,136.165,VALID,0,VALID,24.4169,VALID,107,VALID,0,
2014-12-31, 00:56:04,VALID,1007.82,VALID,0,INVALID,136.12,VALID,0,VALID,24.3974,VALID,107,VALID,0,
2014-12-31, 00:57:04,VALID,1007.84,VALID,0,INVALID,136.082,VALID,0,VALID,24.4169,VALID,107,VALID,0,
2014-12-31, 00:58:04,VALID,1007.84,VALID,0,INVALID,136.021,VALID,0,VALID,24.4169,VALID,107,VALID,0,
2014-12-31, 00:59:04,VALID,1007.8,VALID,0,INVALID,135.982,VALID,0,VALID,24.3956,VALID,107,VALID,0,
2014-12-31, 01:00:04,VALID,1007.81,VALID,0,INVALID,135.952,VALID,0,VALID,24.4169,VALID,107,VALID,0,
2014-12-31, 01:01:04,VALID,1007.8,VALID,0,INVALID,135.929,VALID,0,VALID,24.4132,VALID,107,VALID,0,
2014-12-31, 01:02:04,VALID,1007.81,VALID,0,INVALID,135.883,VALID,0,VALID,24.3937,VALID,107,VALID,0,
2014-12-31, 01:03:04,VALID,1007.78,VALID,0,INVALID,135.83,VALID,0,VALID,24.3937,VALID,107,VALID,0,
2014-12-31, 01:04:04,VALID,1007.77,VALID,0,INVALID,135.7,VALID,0,VALID,24.3937,VALID,107,VALID,0,
2014-12-31, 01:05:04,VALID,1007.75,VALID,0,INVALID,135.655,VALID,0,VALID,24.415,VALID,107,VALID,0,
2014-12-31, 01:06:04,VALID,1007.74,VALID,0,INVALID,135.662,VALID,0,VALID,24.415,VALID,107,VALID,0,
2014-12-31, 01:07:04,VALID,1007.75,VALID,0,INVALID,135.571,VALID,0,VALID,24.3937,VALID,107,VALID,0,
2014-12-31, 01:08:04,VALID,1007.75,VALID,0,INVALID,135.494,VALID,0,VALID,24.415,VALID,107,VALID,0,
2014-12-31, 01:09:04,VALID,1007.78,VALID,0,INVALID,135.395,VALID,0,VALID,24.4345,VALID,107,VALID,0,
2014-12-31, 01:10:04,VALID,1007.76,VALID,0,INVALID,135.35,VALID,0,VALID,24.4132,VALID,107,VALID,0,
2014-12-31, 01:11:04,VALID,1007.75,VALID,0,INVALID,135.273,VALID,0.112112,VALID,24.4345,VALID,107,VALID,0,
2014-12-31, 01:12:04,VALID,1007.77,VALID,0,INVALID,135.22,VALID,0,VALID,24.4345,VALID,107,VALID,0,
2014-12-31, 01:13:04,VALID,1007.76,VALID,0,INVALID,135.159,VALID,0.112112,VALID,24.4345,VALID,107,VALID,0,
2014-12-31, 01:14:04,VALID,1007.76,VALID,0,INVALID,135.098,VALID,0,VALID,24.3937,VALID,107,VALID,0,
2014-12-31, 01:15:04,VALID,1007.78,VALID,0,INVALID,135.044,VALID,0.112112,VALID,24.4132,VALID,107,VALID,0,
2014-12-31, 01:16:04,VALID,1007.73,VALID,0,INVALID,134.953,VALID,0,VALID,24.4345,VALID,107,VALID,0,
2014-12-31, 01:17:04,VALID,1007.74,VALID,0,INVALID,134.892,VALID,0,VALID,24.4345,VALID,107,VALID,0,
2014-12-31, 01:18:04,VALID,1007.72,VALID,0,INVALID,134.846,VALID,0.112112,VALID,24.3937,VALID,107,VALID,0,
2014-12-31, 01:19:04,VALID,1007.7,VALID,0,INVALID,134.701,VALID,0,VALID,24.4345,VALID,107,VALID,0,
2014-12-31, 01:20:04,VALID,1007.67,VALID,0,INVALID,134.617,VALID,0,VALID,24.4132,VALID,107,VALID,0,
2014-12-31, 01:21:04,VALID,1007.64,VALID,0,INVALID,134.572,VALID,0.112112,VALID,24.4132,VALID,107,VALID,0,
2014-12-31, 01:22:04,VALID,1007.63,VALID,0,INVALID,134.503,VALID,0,VALID,24.4345,VALID,107,VALID,0,
2014-12-31, 01:23:04,VALID,1007.65,VALID,0,INVALID,134.419,VALID,0,VALID,24.4345,VALID,107,VALID,0,
2014-12-31, 01:24:04,VALID,1007.64,VALID,0,INVALID,134.404,VALID,0.112112,VALID,24.4345,VALID,107,VALID,0,
2014-12-31, 01:25:04,VALID,1007.65,VALID,0,INVALID,134.282,VALID,0,VALID,24.4132,VALID,107,VALID,0,
2014-12-31, 01:26:04,VALID,1007.64,VALID,0,INVALID,134.251,VALID,0,VALID,24.4345,VALID,107,VALID,0,
2014-12-31, 01:27:04,VALID,1007.63,VALID,0,INVALID,134.122,VALID,0,VALID,24.4345,VALID,107,VALID,0,
2014-12-31, 01:28:04,VALID,1007.62,VALID,0,INVALID,134.053,VALID,0,VALID,24.4327,VALID,107,VALID,0,
2014-12-31, 01:29:04,VALID,1007.62,VALID,0,INVALID,134.03,VALID,0,VALID,24.4345,VALID,107,VALID,0,
2014-12-31, 01:30:04,VALID,1007.64,VALID,0,INVALID,133.962,VALID,0.112112,VALID,24.4327,VALID,107,VALID,0,
2014-12-31, 01:31:04,VALID,1007.6,VALID,0,INVALID,133.931,VALID,0,VALID,24.4345,VALID,107,VALID,0,
2014-12-31, 01:32:04,VALID,1007.6,VALID,0,INVALID,133.855,VALID,0.112112,VALID,24.4345,VALID,107,VALID,0,
2014-12-31, 01:33:04,VALID,1007.58,VALID,0,INVALID,133.786,VALID,0.112112,VALID,24.4345,VALID,107,VALID,0,
2014-12-31, 01:34:04,VALID,1007.6,VALID,0,INVALID,133.809,VALID,0,VALID,24.3937,VALID,107,VALID,0,
2014-12-31, 01:35:04,VALID,1007.6,VALID,0,INVALID,133.718,VALID,0,VALID,24.3937,VALID,107,VALID,0,
2014-12-31, 01:36:04,VALID,1007.61,VALID,0,INVALID,133.725,VALID,0,VALID,24.3956,VALID,107,VALID,0,
2014-12-31, 01:37:04,VALID,1007.59,VALID,0,INVALID,133.641,VALID,0,VALID,24.3742,VALID,107,VALID,0,
2014-12-31, 01:38:04,VALID,1007.6,VALID,0,INVALID,133.687,VALID,0,VALID,24.3956,VALID,107,VALID,0,
2014-12-31, 01:39:04,VALID,1007.58,VALID,0,INVALID,133.641,VALID,0,VALID,24.3761,VALID,107,VALID,0,
2014-12-31, 01:40:04,VALID,1007.58,VALID,0,INVALID,133.588,VALID,0.112112,VALID,24.3547,VALID,107,VALID,0,
2014-12-31, 01:41:04,VALID,1007.59,VALID,0,INVALID,133.557,VALID,0,VALID,24.3547,VALID,107,VALID,0,
2014-12-31, 01:42:04,VALID,1007.58,VALID,0,INVALID,133.458,VALID,0.112112,VALID,24.3742,VALID,107,VALID,0,
2014-12-31, 01:43:04,VALID,1007.61,VALID,0,INVALID,133.458,VALID,0,VALID,24.3956,VALID,107,VALID,0,
2014-12-31, 01:44:04,VALID,1007.61,VALID,0,INVALID,133.359,VALID,0,VALID,24.3956,VALID,107,VALID,0,
2014-12-31, 01:45:04,VALID,1007.61,VALID,0,INVALID,133.321,VALID,0.112112,VALID,24.3742,VALID,107,VALID,0,
2014-12-31, 01:46:04,VALID,1007.64,VALID,0,INVALID,133.245,VALID,0,VALID,24.3956,VALID,107,VALID,0,
2014-12-31, 01:47:04,VALID,1007.66,VALID,0,INVALID,133.26,VALID,0.112112,VALID,24.3742,VALID,107,VALID,0,
2014-12-31, 01:48:04,VALID,1007.67,VALID,0,INVALID,133.153,VALID,0,VALID,24.3956,VALID,107,VALID,0,
2014-12-31, 01:49:04,VALID,1007.69,VALID,0,INVALID,133.13,VALID,0,VALID,24.3956,VALID,107,VALID,0,
2014-12-31, 01:50:04,VALID,1007.67,VALID,0,INVALID,133.146,VALID,0,VALID,24.3742,VALID,107,VALID,0,
2014-12-31, 01:51:04,VALID,1007.68,VALID,0,INVALID,133.077,VALID,0,VALID,24.3742,VALID,107,VALID,0,
2014-12-31, 01:52:04,VALID,1007.67,VALID,0,INVALID,132.986,VALID,0.112112,VALID,24.415,VALID,107,VALID,0,
2014-12-31, 01:53:04,VALID,1007.66,VALID,0,INVALID,132.947,VALID,0,VALID,24.3956,VALID,107,VALID,0,
2014-12-31, 01:54:04,VALID,1007.69,VALID,0,INVALID,132.947,VALID,0,VALID,24.3761,VALID,107,VALID,0,
2014-12-31, 01:55:04,VALID,1007.68,VALID,0,INVALID,132.917,VALID,0,VALID,24.3761,VALID,107,VALID,0,
2014-12-31, 01:56:04,VALID,1007.68,VALID,0,INVALID,132.863,VALID,0,VALID,24.3761,VALID,107,VALID,0,
2014-12-31, 01:57:04,VALID,1007.62,VALID,0,INVALID,132.818,VALID,0,VALID,24.3761,VALID,107,VALID,0,
2014-12-31, 01:58:04,VALID,1007.64,VALID,0,INVALID,132.726,VALID,0.112112,VALID,24.3761,VALID,107,VALID,0,
2014-12-31, 01:59:04,VALID,1007.65,VALID,0,INVALID,132.719,VALID,0,VALID,24.3352,VALID,107,VALID,0,
2014-12-31, 02:00:04,VALID,1007.63,VALID,0,INVALID,132.65,VALID,0.112112,VALID,24.3761,VALID,107,VALID,0,
2014-12-31, 02:01:04,VALID,1007.62,VALID,0,INVALID,132.597,VALID,0,VALID,24.3566,VALID,107,VALID,0,
2014-12-31, 02:02:04,VALID,1007.64,VALID,0,INVALID,132.528,VALID,0,VALID,24.3352,VALID,107,VALID,0,
2014-12-31, 02:03:04,VALID,1007.64,VALID,0,INVALID,132.436,VALID,0,VALID,24.3566,VALID,107,VALID,0,
2014-12-31, 02:04:04,VALID,1007.68,VALID,0,INVALID,132.414,VALID,0,VALID,24.3584,VALID,107,VALID,0,
2014-12-31, 02:05:04,VALID,1007.67,VALID,0,INVALID,132.276,VALID,0,VALID,24.3566,VALID,107,VALID,0,
2014-12-31, 02:06:04,VALID,1007.66,VALID,0,INVALID,132.147,VALID,0,VALID,24.3547,VALID,107,VALID,0,
2014-12-31, 02:07:04,VALID,1007.65,VALID,0,INVALID,132.192,VALID,0.112112,VALID,24.3761,VALID,107,VALID,0,
2014-12-31, 02:08:04,VALID,1007.64,VALID,0,INVALID,132.093,VALID,0,VALID,24.3352,VALID,107,VALID,0,
2014-12-31, 02:09:04,VALID,1007.65,VALID,0,INVALID,132.04,VALID,0,VALID,24.3566,VALID,107,VALID,0,
2014-12-31, 02:10:04,VALID,1007.64,VALID,0,INVALID,131.987,VALID,0,VALID,24.3779,VALID,107,VALID,0,
2014-12-31, 02:11:04,VALID,1007.61,VALID,0,INVALID,131.895,VALID,0,VALID,24.3566,VALID,107,VALID,0,
2014-12-31, 02:12:04,VALID,1007.62,VALID,0,INVALID,131.804,VALID,0,VALID,24.3761,VALID,107,VALID,0,
2014-12-31, 02:13:04,VALID,1007.59,VALID,0,INVALID,131.704,VALID,0,VALID,24.3761,VALID,107,VALID,0,
2014-12-31, 02:14:04,VALID,1007.6,VALID,0,INVALID,131.659,VALID,0,VALID,24.3761,VALID,107,VALID,0,
2014-12-31, 02:15:04,VALID,1007.6,VALID,0,INVALID,131.613,VALID,0,VALID,24.3761,VALID,107,VALID,0,
2014-12-31, 02:16:04,VALID,1007.57,VALID,0,INVALID,131.491,VALID,0,VALID,24.3956,VALID,107,VALID,0,
2014-12-31, 02:17:04,VALID,1007.59,VALID,0,INVALID,131.399,VALID,0,VALID,24.3956,VALID,107,VALID,0,
2014-12-31, 02:18:04,VALID,1007.57,VALID,0,INVALID,131.3,VALID,0,VALID,24.3956,VALID,107,VALID,0,
2014-12-31, 02:19:04,VALID,1007.54,VALID,0,INVALID,131.27,VALID,0,VALID,24.3761,VALID,107,VALID,0,
2014-12-31, 02:20:04,VALID,1007.56,VALID,0,INVALID,131.178,VALID,0.112112,VALID,24.3956,VALID,107,VALID,0,
2014-12-31, 02:21:04,VALID,1007.56,VALID,0,INVALID,131.11,VALID,0,VALID,24.3956,VALID,107,VALID,0,
2014-12-31, 02:22:04,VALID,1007.58,VALID,0,INVALID,130.949,VALID,0,VALID,24.3937,VALID,107,VALID,0,
2014-12-31, 02:23:04,VALID,1007.57,VALID,0,INVALID,130.965,VALID,0,VALID,24.3956,VALID,107,VALID,0,
2014-12-31, 02:24:04,VALID,1007.6,VALID,0,INVALID,130.881,VALID,0,VALID,24.4169,VALID,107,VALID,0,
2014-12-31, 02:25:04,VALID,1007.55,VALID,0,INVALID,130.789,VALID,0,VALID,24.3956,VALID,107,VALID,0,
2014-12-31, 02:26:04,VALID,1007.58,VALID,0,INVALID,130.721,VALID,0,VALID,24.3761,VALID,107,VALID,0,
2014-12-31, 02:27:04,VALID,1007.56,VALID,0,INVALID,130.606,VALID,0,VALID,24.3742,VALID,107,VALID,0,
2014-12-31, 02:28:04,VALID,1007.56,VALID,0,INVALID,130.538,VALID,0,VALID,24.3956,VALID,107,VALID,0,
2014-12-31, 02:29:04,VALID,1007.57,VALID,0,INVALID,130.5,VALID,0,VALID,24.3956,VALID,107,VALID,0,
2014-12-31, 02:30:04,VALID,1007.55,VALID,0,INVALID,130.5,VALID,0,VALID,24.3956,VALID,107,VALID,0,
2014-12-31, 02:31:04,VALID,1007.57,VALID,0,INVALID,130.332,VALID,0,VALID,24.3956,VALID,107,VALID,0,
2014-12-31, 02:32:04,VALID,1007.57,VALID,0,INVALID,130.355,VALID,0,VALID,24.3761,VALID,107,VALID,0,
2014-12-31, 02:33:04,VALID,1007.55,VALID,0,INVALID,130.332,VALID,0,VALID,24.3566,VALID,107,VALID,0,
2014-12-31, 02:34:04,VALID,1007.56,VALID,0,INVALID,130.233,VALID,0,VALID,24.3566,VALID,107,VALID,0,
2014-12-31, 02:35:04,VALID,1007.57,VALID,0,INVALID,130.111,VALID,0,VALID,24.3974,VALID,107,VALID,0,
2014-12-31, 02:36:04,VALID,1007.58,VALID,0,INVALID,130.05,VALID,0,VALID,24.3956,VALID,107,VALID,0,
2014-12-31, 02:37:04,VALID,1007.57,VALID,0,INVALID,129.989,VALID,0,VALID,24.3761,VALID,107,VALID,0,
2014-12-31, 02:38:04,VALID,1007.59,VALID,0,INVALID,129.981,VALID,0,VALID,24.3566,VALID,107,VALID,0,
2014-12-31, 02:39:04,VALID,1007.57,VALID,0,INVALID,129.836,VALID,0,VALID,24.3956,VALID,107,VALID,0,
2014-12-31, 02:40:04,VALID,1007.58,VALID,0,INVALID,129.813,VALID,0,VALID,24.3761,VALID,107,VALID,0,
2014-12-31, 02:41:04,VALID,1007.54,VALID,0,INVALID,129.745,VALID,0,VALID,24.3761,VALID,107,VALID,0,
2014-12-31, 02:42:04,VALID,1007.51,VALID,0,INVALID,129.653,VALID,0,VALID,24.3547,VALID,107,VALID,0,
2014-12-31, 02:43:04,VALID,1007.5,VALID,0,INVALID,129.607,VALID,0,VALID,24.3761,VALID,107,VALID,0,
2014-12-31, 02:44:04,VALID,1007.52,VALID,0,INVALID,129.546,VALID,0.112112,VALID,24.3761,VALID,107,VALID,0,
2014-12-31, 02:45:04,VALID,1007.49,VALID,0,INVALID,129.493,VALID,0,VALID,24.3761,VALID,107,VALID,0,
2014-12-31, 02:46:04,VALID,1007.48,VALID,0,INVALID,129.44,VALID,0,VALID,24.3761,VALID,107,VALID,0,
2014-12-31, 02:47:04,VALID,1007.45,VALID,0,INVALID,129.386,VALID,0,VALID,24.3761,VALID,107,VALID,0,
2014-12-31, 02:48:04,VALID,1007.45,VALID,0,INVALID,129.264,VALID,0,VALID,24.3761,VALID,107,VALID,0,
2014-12-31, 02:49:04,VALID,1007.46,VALID,0,INVALID,129.226,VALID,0,VALID,24.3742,VALID,107,VALID,0,
2014-12-31, 02:50:04,VALID,1007.49,VALID,0,INVALID,129.234,VALID,0,VALID,24.3761,VALID,107,VALID,0,
2014-12-31, 02:51:04,VALID,1007.49,VALID,0,INVALID,129.15,VALID,0,VALID,24.3761,VALID,107,VALID,0,
2014-12-31, 02:52:04,VALID,1007.51,VALID,0,INVALID,129.081,VALID,0,VALID,24.3761,VALID,107,VALID,0,
2014-12-31, 02:53:04,VALID,1007.51,VALID,0,INVALID,129.02,VALID,0,VALID,24.3761,VALID,107,VALID,0,
2014-12-31, 02:54:04,VALID,1007.54,VALID,0,INVALID,128.967,VALID,0,VALID,24.3761,VALID,107,VALID,0,
2014-12-31, 02:55:04,VALID,1007.54,VALID,0,INVALID,128.936,VALID,0,VALID,24.3761,VALID,107,VALID,0,
2014-12-31, 02:56:04,VALID,1007.56,VALID,0,INVALID,128.944,VALID,0,VALID,24.3371,VALID,107,VALID,0,
2014-12-31, 02:57:04,VALID,1007.55,VALID,0,INVALID,128.89,VALID,0,VALID,24.3371,VALID,107,VALID,0,
2014-12-31, 02:58:04,VALID,1007.53,VALID,0,INVALID,128.791,VALID,0,VALID,24.3566,VALID,107,VALID,0,
2014-12-31, 02:59:04,VALID,1007.55,VALID,0,INVALID,128.768,VALID,0,VALID,24.3371,VALID,107,VALID,0,
2014-12-31, 03:00:04,VALID,1007.54,VALID,0,INVALID,128.723,VALID,0,VALID,24.3566,VALID,107,VALID,0,
2014-12-31, 03:01:04,VALID,1007.52,VALID,0,INVALID,128.677,VALID,0.112112,VALID,24.3547,VALID,107,VALID,0,
2014-12-31, 03:02:04,VALID,1007.49,VALID,0,INVALID,128.57,VALID,0.112112,VALID,24.3547,VALID,107,VALID,0,
2014-12-31, 03:03:04,VALID,1007.48,VALID,0,INVALID,128.608,VALID,0,VALID,24.3566,VALID,107,VALID,0,
2014-12-31, 03:04:04,VALID,1007.48,VALID,0,INVALID,128.54,VALID,0,VALID,24.3566,VALID,107,VALID,0,
2014-12-31, 03:05:05,VALID,1007.48,VALID,0,INVALID,128.563,VALID,0,VALID,24.3158,VALID,107,VALID,0,
2014-12-31, 03:06:05,VALID,1007.46,VALID,0,INVALID,128.502,VALID,0.112112,VALID,24.3566,VALID,107,VALID,0,
2014-12-31, 03:07:05,VALID,1007.45,VALID,0,INVALID,128.402,VALID,0.112112,VALID,24.3547,VALID,107,VALID,0,
2014-12-31, 03:08:05,VALID,1007.43,VALID,0,INVALID,128.311,VALID,0.112112,VALID,24.3547,VALID,107,VALID,0,
2014-12-31, 03:09:05,VALID,1007.42,VALID,0,INVALID,128.349,VALID,0.112112,VALID,24.3547,VALID,107,VALID,0,
2014-12-31, 03:10:05,VALID,1007.44,VALID,0,INVALID,128.28,VALID,0.112112,VALID,24.3761,VALID,107,VALID,0,
2014-12-31, 03:11:05,VALID,1007.41,VALID,0,INVALID,128.227,VALID,0,VALID,24.3761,VALID,107,VALID,0,
2014-12-31, 03:12:05,VALID,1007.44,VALID,0,INVALID,128.204,VALID,0,VALID,24.3547,VALID,107,VALID,0,
2014-12-31, 03:13:05,VALID,1007.41,VALID,0,INVALID,128.258,VALID,0,VALID,24.3352,VALID,107,VALID,0,
2014-12-31, 03:14:05,VALID,1007.42,VALID,0,INVALID,128.197,VALID,0.112112,VALID,24.3547,VALID,107,VALID,0,
2014-12-31, 03:15:05,VALID,1007.43,VALID,0,INVALID,128.128,VALID,0.112112,VALID,24.3761,VALID,107,VALID,0,
2014-12-31, 03:16:05,VALID,1007.41,VALID,0,INVALID,128.105,VALID,0,VALID,24.3547,VALID,107,VALID,0,
2014-12-31, 03:17:05,VALID,1007.43,VALID,0,INVALID,128.151,VALID,0.112112,VALID,24.3371,VALID,107,VALID,0,
2014-12-31, 03:18:05,VALID,1007.44,VALID,0,INVALID,128.174,VALID,0,VALID,24.3176,VALID,107,VALID,0,
2014-12-31, 03:19:05,VALID,1007.4,VALID,0,INVALID,128.128,VALID,0.112112,VALID,24.3371,VALID,107,VALID,0,
2014-12-31, 03:20:05,VALID,1007.42,VALID,0,INVALID,128.059,VALID,0,VALID,24.3371,VALID,107,VALID,0,
2014-12-31, 03:21:05,VALID,1007.42,VALID,0,INVALID,128.044,VALID,0,VALID,24.3566,VALID,107,VALID,0,
2014-12-31, 03:22:05,VALID,1007.45,VALID,0,INVALID,128.059,VALID,0,VALID,24.3371,VALID,107,VALID,0,
2014-12-31, 03:23:05,VALID,1007.47,VALID,0,INVALID,127.998,VALID,0.112112,VALID,24.3566,VALID,107,VALID,0,
2014-12-31, 03:24:05,VALID,1007.46,VALID,0,INVALID,128.044,VALID,0,VALID,24.3566,VALID,107,VALID,0,
2014-12-31, 03:25:05,VALID,1007.48,VALID,0,INVALID,127.983,VALID,0.112112,VALID,24.3761,VALID,107,VALID,0,
2014-12-31, 03:26:05,VALID,1007.48,VALID,0,INVALID,127.998,VALID,0,VALID,24.3547,VALID,107,VALID,0,
2014-12-31, 03:27:05,VALID,1007.49,VALID,0,INVALID,127.998,VALID,0,VALID,24.3761,VALID,107,VALID,0,
2014-12-31, 03:28:05,VALID,1007.5,VALID,0,INVALID,127.953,VALID,0.112112,VALID,24.3566,VALID,107,VALID,0,
2014-12-31, 03:29:05,VALID,1007.49,VALID,0,INVALID,127.876,VALID,0.112112,VALID,24.3956,VALID,107,VALID,0,
2014-12-31, 03:30:05,VALID,1007.5,VALID,0,INVALID,127.861,VALID,0.112112,VALID,24.3742,VALID,107,VALID,0,
2014-12-31, 03:31:05,VALID,1007.47,VALID,0,INVALID,127.953,VALID,0.112112,VALID,24.3761,VALID,107,VALID,0,
2014-12-31, 03:32:05,VALID,1007.48,VALID,0,INVALID,127.975,VALID,0,VALID,24.3352,VALID,107,VALID,0,
2014-12-31, 03:33:05,VALID,1007.49,VALID,0,INVALID,127.907,VALID,0,VALID,24.3566,VALID,107,VALID,0,
2014-12-31, 03:34:05,VALID,1007.49,VALID,0,INVALID,127.914,VALID,0.112112,VALID,24.3566,VALID,107,VALID,0,
2014-12-31, 03:35:05,VALID,1007.48,VALID,0,INVALID,127.96,VALID,0.112112,VALID,24.3158,VALID,107,VALID,0,
2014-12-31, 03:36:05,VALID,1007.48,VALID,0,INVALID,127.937,VALID,0.112112,VALID,24.3176,VALID,107,VALID,0,
2014-12-31, 03:37:05,VALID,1007.5,VALID,0,INVALID,127.853,VALID,0,VALID,24.3158,VALID,107,VALID,0,
2014-12-31, 03:38:05,VALID,1007.49,VALID,0,INVALID,127.838,VALID,0,VALID,24.3371,VALID,107,VALID,0,
2014-12-31, 03:39:05,VALID,1007.47,VALID,0,INVALID,127.899,VALID,0,VALID,24.2963,VALID,107,VALID,0,
2014-12-31, 03:40:05,VALID,1007.45,VALID,0,INVALID,127.785,VALID,0.112112,VALID,24.3158,VALID,107,VALID,0,
2014-12-31, 03:41:05,VALID,1007.45,VALID,0,INVALID,127.77,VALID,0.112112,VALID,24.3158,VALID,107,VALID,0,
2014-12-31, 03:42:05,VALID,1007.45,VALID,0,INVALID,127.739,VALID,0.112112,VALID,24.3566,VALID,107,VALID,0,
2014-12-31, 03:43:05,VALID,1007.46,VALID,0,INVALID,127.8,VALID,0.112112,VALID,24.3158,VALID,107,VALID,0,
2014-12-31, 03:44:05,VALID,1007.48,VALID,0,INVALID,127.731,VALID,0,VALID,24.3371,VALID,107,VALID,0,
2014-12-31, 03:45:05,VALID,1007.48,VALID,0,INVALID,127.754,VALID,0.112112,VALID,24.3371,VALID,107,VALID,0,
2014-12-31, 03:46:05,VALID,1007.49,VALID,0,INVALID,127.708,VALID,0.112112,VALID,24.3176,VALID,107,VALID,0,
2014-12-31, 03:47:05,VALID,1007.47,VALID,0,INVALID,127.647,VALID,0.112112,VALID,24.3371,VALID,107,VALID,0,
2014-12-31, 03:48:05,VALID,1007.46,VALID,0,INVALID,127.64,VALID,0.112112,VALID,24.3158,VALID,107,VALID,0,
2014-12-31, 03:49:05,VALID,1007.46,VALID,0,INVALID,127.609,VALID,0.112112,VALID,24.2963,VALID,107,VALID,0,
2014-12-31, 03:50:05,VALID,1007.47,VALID,0,INVALID,127.556,VALID,0.112112,VALID,24.3139,VALID,107,VALID,0,
2014-12-31, 03:51:05,VALID,1007.47,VALID,0,INVALID,127.487,VALID,0.112112,VALID,24.3371,VALID,107,VALID,0,